Location: Kerb�bon
(47.7970°N, 3.3487°W)
Time: 13:23:19
(UTC+00:00)

USA 307 - Pass Details

Date: 12 May 2021
Orbit: 566 x 577 km, 54.0° (Epoch: 10 May)

Event Time Altitude Azimuth Distance (km) Brightness Sun altitude
Rises 21:07:39 0° 299° (WNW) 2,777 8.0 -12.3°
Reaches altitude 10° 21:09:54 10° 300° (WNW) 1,878 6.8 -12.6°
Maximum altitude 21:14:11 86° 28° (NNE) 579 2.9 -13.1°
Enters shadow 21:17:05 20° 119° (ESE) 1,341 4.2 -13.4°
